Regional Weather Roundup
Issued by NWS

Home | Current Version | Previous Version | Text Only | Print | Product List | Glossary Off
Versions: 1 2 3 4 5 6 7 8 9 10 11 12 13 14 15 16 17 18 19 20 21 22 23 24 25 26 27 28 29 30 31 32 33 34 35 36 37 38 39 40 41 42 43 44 45 46 47 48 49 50

000
ASUS45 KBOU 250207
RWRCO

WEATHER ROUNDUP FOR COLORADO
NATIONAL WEATHER SERVICE DENVER/BOULDER CO
800 PM MDT WED AUG 24 2016

NOTE: "FAIR" INDICATES FEW OR NO CLOUDS BELOW 12000 FEET WITH NO
SIGNIFICANT WEATHER AND/OR OBSTRUCTIONS TO VISIBILITY.

COZ001>005-013-030-031-250300-
...NORTHWEST COLORADO...

CITY           SKY/WX    TMP DP  RH WIND       PRES   REMARKS
CRAIG          MOCLDY    70  33  25 S15       30.15R
HAYDEN         CLOUDY    66  32  28 SW13      30.18R
MEEKER         MOCLDY    64  40  41 SE6       30.21R
MOUNT WERNER   NOT AVBL
STEAMBOAT SPGS MOCLDY    65  35  32 S6        30.19R
WALDEN         FAIR      50  37  62 SE5       30.31S
$$

COZ006>008-011-250300-
...WEST CENTRAL VALLEYS...

CITY           SKY/WX    TMP DP  RH WIND       PRES   REMARKS
GRAND JUNCTION FAIR      76  35  22 N16       30.10R
MONTROSE       FAIR      68  43  40 CALM      30.16R
EAGLE          FAIR      66  34  30 SW9       30.21R
RIFLE          FAIR      69  46  43 CALM      30.13R
DELTA          NOT AVBL
NUCLA          FAIR      72  41  33 S8        30.20R
$$

COZ017>023-064>068-250300-
...SOUTHWEST COLORADO...

CITY           SKY/WX    TMP DP  RH WIND       PRES   REMARKS
DURANGO        FAIR      63  47  55 W3        30.24R
CORTEZ         FAIR      66  48  52 SE3       30.19R
PAGOSA SPRINGS FAIR      55  43  65 CALM      30.33R
TELLURIDE      FAIR      55  41  59 CALM      30.40S
WOLF CREEK PAS FAIR      37  37 100 SW5       30.58S
$$

COZ009-010-012-014-032>034-037-058>063-250300-
...CENTRAL COLORADO...

CITY           SKY/WX    TMP DP  RH WIND       PRES   REMARKS
ASPEN          FAIR      57  41  55 SW6       30.29R
BUENA VISTA    CLOUDY    55  47  74 SE12G17   30.37R
COPPER MTN     FAIR      46  28  49 W9        30.54S
BERTHOUD PASS  HAZE      34  21  60 E14       30.58R VSB<1/4 WCI  24
COTTONWOOD PAS FAIR      50  46  87 CALM      30.46R
GUNNISON       MOCLDY    61  37  41 N10       30.31R
KREMMLING      MOCLDY    55  43  62 NW3       30.29R
LEADVILLE      FAIR      47  43  86 S9        30.42R
MONARCH PASS   FAIR      37  34  87 NE15      30.65R
SALIDA         FAIR      56  49  79 E8        30.41R
SUNLIGHT       FAIR      48  34  57 CALM      30.50R
WILKERSON PASS FOG       37  37 100 S10       30.56R VSB<1/4
$$

COZ069>075-250300-
...SAN LUIS VALLEY/SANGRE DE CRISTO MOUNTAINS...

CITY           SKY/WX    TMP DP  RH WIND       PRES   REMARKS
ALAMOSA        FAIR      54  46  74 E12       30.30S
LA VETA PASS   NOT AVBL
SAGUACHE       FAIR      50  46  87 W6        30.34S
$$

COZ035-036-038>040-250300-
...NORTHERN COLORADO FRONT RANGE...

CITY           SKY/WX    TMP DP  RH WIND       PRES   REMARKS
DENVER INTL AP CLOUDY    61  52  72 E7        30.24S
DMNS CITY PARK   N/A     61  51  70 W5        30.26R
AURORA         MOCLDY    61  50  69 E5        30.26R
FRONT RANGE AP CLOUDY    63  54  72 NE6       30.26R
ERIE MUNI ARPT RAIN      62  50  64 S12       30.23R
BOULDER MUN AP RAIN      59  55  88 W5        30.24S
CENTENNIAL     MOCLDY    60  46  59 E6        30.27R
BROOMFIELD     MOCLDY    63  50  63 W9        30.28R
FORT COLLINS   MOCLDY    61  54  77 NW6       30.25
LONGMONT       MOCLDY    63  53  70 NW6       30.26R
$$

COZ041-046-047-076>085-087-088-250300-
...PIKES PEAK/PALMER DIVIDE AND SOUTHERN FOOTHILLS...

CITY           SKY/WX    TMP DP  RH WIND       PRES   REMARKS
COLO. SPRINGS  MOCLDY    60  47  61 NW6       30.31R
A. F. ACADEMY  FAIR      54  53  94 CALM      30.31R
SCHRIEVER AFB  NOT AVBL
ELLICOTT       MOCLDY   N/A N/A N/A NW5       30.28
FALCON         FAIR      53  47  78 W3        30.34R
FORT CARSON    NOT AVBL
LIMON          MOCLDY    63  33  32 E9        30.25R
MONUMENT HILL  FAIR      48  45  87 S8        30.34R
TRINIDAD       LGT RAIN  57  54  89 NW6       30.28S
$$

COZ042>045-048>051-090-091-250300-
...NORTHEAST COLORADO...

CITY           SKY/WX    TMP DP  RH WIND       PRES   REMARKS
GREELEY ARPT   MOCLDY    64  50  59 W7        30.22R
AKRON          CLOUDY    64  38  38 SE8       30.22S
BURLINGTON     FAIR      61  38  42 E8        30.19R
WRAY           NOT AVBL
STERLING       FAIR      63  46  55 CALM      30.19R
HOLYOKE        FAIR      64  45  48 S6        30.20R
FORT MORGAN    FAIR      58  40  51 NW9       30.22R
$$

COZ086-089-092>099-250300-
...SOUTHEAST COLORADO...

CITY           SKY/WX    TMP DP  RH WIND       PRES   REMARKS
PUEBLO         MOCLDY    66  54  65 W6        30.22R
LA JUNTA       FAIR      70  43  37 E9        30.19R
LAMAR          FAIR      66  45  46 NE6       30.13R
SPRINGFIELD      N/A     68  55  63 N14       30.14R
$$



USA.gov is the U.S. government's official web portal to all federal, state and local government web resources and services.